This is the latest recevied weather packets stored in our database for station/object W3JGB. If no packets are shown the sender has not sent any weather packets the latest 10 day(s).
| Time | Temp. | Humidity | Pressure | Rain* | Wind** | Luminosity | Snow |
|---|---|---|---|---|---|---|---|
| 1777828712 | 13.89° C | 37% | 1013.3 hPa | 0 mm | - | 591 W/m² | - |
| 1777828409 | 13.89° C | 40% | 1013.2 hPa | 0 mm | - | 175 W/m² | - |
| 1777828107 | 13.89° C | 38% | 1013.5 hPa | 0 mm | - | 520 W/m² | - |
| 1777827803 | 13.33° C | 40% | 1013.4 hPa | 0 mm | - | 527 W/m² | - |
| 1777827500 | 13.33° C | 37% | 1013.6 hPa | 0 mm | - | 188 W/m² | - |
| 1777827198 | 13.33° C | 38% | 1013.3 hPa | 0 mm | - | 488 W/m² | - |
| 1777826894 | 12.78° C | 41% | 1013.7 hPa | 0 mm | - | 380 W/m² | - |
| 1777826592 | 12.22° C | 39% | 1013.9 hPa | 0 mm | - | 501 W/m² | - |
| 1777826287 | 12.78° C | 42% | 1013.8 hPa | 0 mm | - | 148 W/m² | - |
| 1777825986 | 12.78° C | 41% | 1013.9 hPa | 0 mm | - | 743 W/m² | - |
| 1777825682 | 12.22° C | 41% | 1013.8 hPa | 0 mm | - | 574 W/m² | - |
| 1777825380 | 11.67° C | 41% | 1014.2 hPa | 0 mm | - | 468 W/m² | - |
| 1777825076 | 11.67° C | 45% | 1013.8 hPa | 0 mm | - | 174 W/m² | - |
| 1777824772 | 12.22° C | 43% | 1014.2 hPa | 0 mm | - | 149 W/m² | - |
| 1777824470 | 11.67° C | 42% | 1014.4 hPa | 0 mm | - | 431 W/m² | - |
| 1777824165 | 11.11° C | 45% | 1014.5 hPa | 0 mm | - | 266 W/m² | - |
| 1777823861 | 11.11° C | 45% | 1014.3 hPa | 0 mm | - | 159 W/m² | - |
| 1777823560 | 11.11° C | 47% | 1014.2 hPa | 0 mm | - | 203 W/m² | - |
| 1777823256 | 10.56° C | 43% | 1014.3 hPa | 0 mm | - | 140 W/m² | - |
| 1777822954 | 10.56° C | 45% | 1014.5 hPa | 0 mm | - | 129 W/m² | - |
| 1777822652 | 10.56° C | 46% | 1014.6 hPa | 0 mm | - | 148 W/m² | - |
| 1777822349 | 10.56° C | 45% | 1014.5 hPa | 0 mm | - | 105 W/m² | - |
| 1777822047 | 10.56° C | 44% | 1014.5 hPa | 0 mm | - | 152 W/m² | - |
| 1777821745 | 10° C | 43% | 1014.6 hPa | 0 mm | - | 152 W/m² | - |
| 1777821441 | 10° C | 45% | 1014.4 hPa | 0 mm | - | 116 W/m² | - |
* Rain latest hour (hover to see other rain measurements)
** Current wind speed in m/s (hover to see current wind gust speed)